Location: D�nning
(49.2479°N, 12.8491°E)
Time: 14:38:05
(UTC+00:00)

Meteor 1-21 - Pass Details

Date: 18 September 2020
Orbit: 845 x 887 km, 81.2° (Epoch: 24 October)

Event Time Altitude Azimuth Distance (km) Brightness Sun altitude
Rises 18:12:37 0° 346° (NNW) 3,433 7.8 -10.2°
Reaches altitude 10° 18:15:04 10° 345° (NNW) 2,488 7.1 -10.6°
Maximum altitude 18:20:41 74° 262° (W) 886 4.5 -11.5°
Drops below altitude 10° 18:26:14 10° 178° (S) 2,461 6.4 -12.3°
Sets 18:28:38 0° 177° (S) 3,392 7.1 -12.7°
